Weather History for Belen, NM

Change the Weather History Date:

Wednesday, October 26, 2011

  Actual Average (KABQ) Record (KABQ)
Temperature  
Mean Temperature 59 °F 54 °F  
Max Temperature 74 °F 65 °F 82 °F (1979)
Min Temperature 44 °F 42 °F 25 °F (1916)
Degree Days  
Heating Degree Days 6 11  
Month to date heating degree days 178  
Since 1 July heating degree days 204  
Cooling Degree Days 0 0  
Month to date cooling degree days 7  
Year to date cooling degree days 1319  
Growing Degree Days 9 (Base 50)    
Moisture  
Dew Point 37 °F    
Average Humidity 51    
Maximum Humidity 83    
Minimum Humidity 17    
Precipitation  
Precipitation 0.00 in 0.02 in 0.40 in (1994)
Month to date precipitation 0.90  
Year to date precipitation 8.26  
Snow  
Snow 0.00 in - - ()
Month to date snowfall  
Since 1 July snowfall  
Since 1 September snowfall  
Snow Depth -    
Sea Level Pressure  
Sea Level Pressure 29.95 in    
Wind  
Wind Speed 7 mph (SSW)    
Max Wind Speed 29 mph    
Max Gust Speed 39 mph    
Visibility 10 miles    
Events Thunderstorm    
T = Trace of Precipitation, MM = Missing Value Source: NWS Daily Summary

Daily Weather History Graph

Daily Weather History Graph

Search for Another Location

Airport:

Trip Planner

Search our weather history database for the weather conditions in past years. The results will help you decide how hot, cold, wet, or windy it might be!

Date:

Astronomy

Oct. 26, 2011 Rise Set
Actual Time 7:22 AM MDT 6:19 PM MDT
Civil Twilight 6:56 AM MDT 6:45 PM MDT
Nautical Twilight 6:26 AM MDT 7:15 PM MDT
Astronomical Twilight 5:57 AM MDT 7:44 PM MDT
Moon 7:11 AM MDT 6:07 PM MDT
Length of Visible Light 11h 49m
Length of Day
10h 57m
Waning Crescent, 0% of the Moon is Illuminated
Oct 26
Waning Crescent
Oct 26
New
Nov 2
First Quarter
Nov 10
Full
Nov 18
Last Quarter

Hourly Weather History & Observations

Time (MDT) Temp. Windchill Dew Point Humidity Pressure Visibility Wind Dir Wind Speed Gust Speed Precip Events Conditions
12:15 AM 52.3 °F - 43.0 °F 70% 30.07 in 10.0 mi Calm Calm - N/A   Clear
12:35 AM 51.1 °F - 41.9 °F 71% 30.07 in 10.0 mi Calm Calm - N/A   Clear
12:55 AM 51.4 °F - 42.3 °F 71% 30.07 in 10.0 mi Calm Calm - N/A   Clear
1:15 AM 50.0 °F - 41.7 °F 73% 30.07 in 10.0 mi Calm Calm - N/A   Clear
1:35 AM 50.2 °F - 41.9 °F 73% 30.06 in 10.0 mi SSE 4.6 mph - N/A   Scattered Clouds
1:55 AM 49.6 °F - 41.9 °F 75% 30.06 in 10.0 mi SSE 3.5 mph - N/A   Clear
2:15 AM 49.6 °F - 41.5 °F 74% 30.05 in 10.0 mi Calm Calm - N/A   Scattered Clouds
2:35 AM 49.8 °F - 41.9 °F 74% 30.05 in 10.0 mi Calm Calm - N/A   Clear
2:55 AM 48.6 °F - 41.0 °F 75% 30.04 in 10.0 mi Calm Calm - N/A   Clear
3:15 AM 47.8 °F - 41.0 °F 77% 30.04 in 10.0 mi West 4.6 mph - N/A   Scattered Clouds
3:35 AM 47.5 °F - 40.5 °F 77% 30.03 in 10.0 mi Calm Calm - N/A   Scattered Clouds
3:55 AM 46.0 °F 43.9 °F 40.1 °F 80% 30.02 in 10.0 mi NW 4.6 mph - N/A   Clear
4:15 AM 45.9 °F - 40.5 °F 81% 30.02 in 10.0 mi Calm Calm - N/A   Clear
4:35 AM 46.0 °F - 40.3 °F 80% 30.02 in 10.0 mi Calm Calm - N/A   Clear
4:55 AM 44.8 °F 42.4 °F 39.9 °F 83% 30.02 in 10.0 mi WNW 4.6 mph - N/A   Scattered Clouds
5:15 AM 45.9 °F 42.3 °F 41.0 °F 83% 30.02 in 10.0 mi NNW 6.9 mph - N/A   Scattered Clouds
5:35 AM 47.1 °F - 41.5 °F 81% 30.01 in 10.0 mi NNW 5.8 mph - N/A   Mostly Cloudy
6:15 AM 47.7 °F - 41.5 °F 79% 30.01 in 10.0 mi ENE 4.6 mph - N/A   Overcast
6:35 AM 48.9 °F - 41.9 °F 77% 30.01 in 10.0 mi Calm Calm - N/A   Overcast
6:55 AM 48.7 °F - 42.1 °F 78% 30.01 in 10.0 mi East 3.5 mph - N/A   Overcast
7:15 AM 48.7 °F - 42.3 °F 78% 30.01 in 10.0 mi North 4.6 mph - N/A   Overcast
7:35 AM 48.7 °F - 42.6 °F 79% 30.01 in 10.0 mi NE 3.5 mph - N/A   Overcast
7:55 AM 49.1 °F - 42.8 °F 79% 30.01 in 10.0 mi Calm Calm - N/A Thunderstorm Overcast
8:15 AM 49.8 °F - 43.0 °F 77% 30.01 in 10.0 mi Calm Calm - N/A   Overcast
8:35 AM 51.4 °F - 43.2 °F 73% 30.02 in 10.0 mi North 3.5 mph - N/A   Overcast
8:55 AM 52.5 °F - 43.5 °F 71% 30.02 in 10.0 mi NE 3.5 mph - N/A   Overcast
9:15 AM 53.8 °F - 43.3 °F 68% 30.02 in 10.0 mi NE 4.6 mph - N/A   Overcast
9:55 AM 56.3 °F - 42.1 °F 59% 30.01 in 10.0 mi South 4.6 mph - N/A   Mostly Cloudy
10:15 AM 58.6 °F - 39.6 °F 49% 30.00 in 10.0 mi South 9.2 mph - N/A   Mostly Cloudy
10:35 AM 61.3 °F - 37.6 °F 41% 30.00 in 10.0 mi South 11.5 mph - N/A   Mostly Cloudy
10:55 AM 63.3 °F - 38.8 °F 40% 29.98 in 10.0 mi SSE 10.4 mph - N/A   Scattered Clouds
11:15 AM 65.3 °F - 37.6 °F 36% 29.97 in 10.0 mi SSE 13.8 mph - N/A   Clear
11:35 AM 67.6 °F - 36.3 °F 32% 29.96 in 10.0 mi SSE 19.6 mph - N/A   Clear
11:55 AM 69.8 °F - 35.1 °F 28% 29.95 in 10.0 mi SSE 13.8 mph 19.6 mph N/A   Scattered Clouds
12:15 PM 71.8 °F - 32.5 °F 24% 29.92 in 10.0 mi South 20.7 mph 27.6 mph N/A   Scattered Clouds
12:35 PM 73.2 °F - 31.8 °F 22% 29.91 in 10.0 mi South 19.6 mph 29.9 mph N/A   Scattered Clouds
12:55 PM 73.4 °F - 31.6 °F 22% 29.89 in 10.0 mi South 18.4 mph 28.8 mph N/A   Scattered Clouds
1:15 PM 73.9 °F - 31.8 °F 21% 29.87 in 10.0 mi South 23.0 mph 28.8 mph N/A   Mostly Cloudy
1:35 PM 73.4 °F - 32.0 °F 22% 29.86 in 10.0 mi SSE 17.3 mph 26.5 mph N/A   Scattered Clouds
1:55 PM 73.2 °F - 31.8 °F 22% 29.84 in 10.0 mi South 25.3 mph 33.4 mph N/A   Scattered Clouds
2:15 PM 73.6 °F - 31.8 °F 22% 29.83 in 10.0 mi South 20.7 mph 28.8 mph N/A   Scattered Clouds
2:35 PM 73.6 °F - 32.0 °F 22% 29.82 in 10.0 mi South 19.6 mph 24.2 mph N/A   Mostly Cloudy
2:55 PM 73.2 °F - 31.5 °F 22% 29.80 in 10.0 mi South 17.3 mph 29.9 mph N/A   Overcast
3:15 PM 73.8 °F - 31.5 °F 21% 29.79 in 10.0 mi South 17.3 mph 27.6 mph N/A   Overcast
3:35 PM 73.9 °F - 29.3 °F 19% 29.79 in 10.0 mi SW 18.4 mph - N/A   Mostly Cloudy
4:15 PM 73.9 °F - 27.5 °F 18% 29.79 in 10.0 mi SSW 19.6 mph 27.6 mph N/A   Mostly Cloudy
4:35 PM 74.8 °F - 27.7 °F 17% 29.79 in 10.0 mi WSW 21.9 mph 32.2 mph N/A   Scattered Clouds
4:55 PM 73.8 °F - 28.2 °F 19% 29.79 in 10.0 mi SW 17.3 mph 27.6 mph N/A   Scattered Clouds
5:15 PM 72.3 °F - 28.4 °F 20% 29.81 in 10.0 mi WSW 6.9 mph - N/A   Mostly Cloudy
5:35 PM 70.3 °F - 28.6 °F 21% 29.80 in 10.0 mi WSW 16.1 mph - N/A   Overcast
5:55 PM 68.7 °F - 30.9 °F 25% 29.81 in 10.0 mi West 16.1 mph 23.0 mph N/A   Overcast
6:15 PM 67.1 °F - 31.5 °F 27% 29.81 in 10.0 mi WSW 11.5 mph - N/A   Mostly Cloudy
6:35 PM 66.0 °F - 31.1 °F 27% 29.84 in 10.0 mi SW 11.5 mph - N/A   Mostly Cloudy
6:55 PM 66.6 °F - 29.8 °F 25% 29.84 in 10.0 mi SW 4.6 mph - N/A   Overcast
7:15 PM 65.7 °F - 30.4 °F 27% 29.84 in 10.0 mi NW 11.5 mph - N/A   Mostly Cloudy
7:35 PM 60.8 °F - 38.5 °F 44% 29.86 in 10.0 mi North 28.8 mph 39.1 mph N/A   Overcast
7:55 PM 56.7 °F - 41.7 °F 57% 29.90 in 10.0 mi North 23.0 mph 31.1 mph N/A   Overcast
8:15 PM 55.0 °F - 41.0 °F 59% 29.93 in 10.0 mi North 23.0 mph 32.2 mph N/A   Overcast
8:35 PM 54.1 °F - 42.1 °F 64% 29.93 in 10.0 mi North 25.3 mph 32.2 mph N/A   Mostly Cloudy
9:15 PM 52.9 °F - 41.2 °F 64% 29.94 in 10.0 mi NNE 12.7 mph 21.9 mph N/A   Mostly Cloudy
9:35 PM 52.5 °F - 40.3 °F 63% 29.95 in 10.0 mi North 15.0 mph - N/A Thunderstorm Overcast
9:55 PM 51.6 °F - 39.7 °F 64% 29.95 in 10.0 mi NNE 12.7 mph - N/A   Overcast
10:15 PM 50.9 °F - 39.4 °F 65% 29.96 in 10.0 mi North 13.8 mph - N/A   Overcast
10:35 PM 49.6 °F - 40.5 °F 71% 29.99 in 10.0 mi Calm Calm - 0.01 in Rain , Thunderstorm Rain
11:15 PM 48.2 °F - 41.9 °F 79% 29.99 in 10.0 mi WSW 6.9 mph - N/A   Light Drizzle
11:35 PM 47.1 °F - 41.7 °F 81% 29.98 in 10.0 mi West 10.4 mph - N/A   Overcast
11:55 PM 46.2 °F 39.8 °F 40.6 °F 81% 29.98 in 10.0 mi West 15.0 mph - N/A   Overcast